This is the latest recevied weather packets stored in our database for station/object W6TKD-13. If no packets are shown the sender has not sent any weather packets the latest 10 day(s).
| Time | Temp. | Humidity | Pressure | Rain* | Wind** | Luminosity | Snow |
|---|---|---|---|---|---|---|---|
| 1777924622 | 11.11° C | 66% | 1015.2 hPa | 0 mm | - | - | - |
| 1777923955 | 11.11° C | 66% | 1015.1 hPa | 0 mm | - | - | - |
| 1777923288 | 11.67° C | 65% | 1015.4 hPa | 0 mm | - | - | - |
| 1777921955 | 11.67° C | 65% | 1015.3 hPa | 0 mm | - | - | - |
| 1777921287 | 11.67° C | 64% | 1015.4 hPa | 0 mm | - | - | - |
| 1777920620 | 11.67° C | 64% | 1015.3 hPa | 0 mm | - | - | - |
| 1777919286 | 11.67° C | 64% | 1015.6 hPa | 0 mm | - | - | - |
| 1777917952 | 11.67° C | 63% | 1015.3 hPa | 0 mm | - | - | - |
| 1777917285 | 11.67° C | 63% | 1015.3 hPa | 0 mm | - | - | - |
| 1777916618 | 11.67° C | 63% | 1015.2 hPa | 0 mm | - | - | - |
| 1777915952 | 11.67° C | 62% | 1015.2 hPa | 0 mm | - | - | - |
| 1777915284 | 11.11° C | 62% | 1015.1 hPa | 0 mm | - | - | - |
| 1777914617 | 11.11° C | 61% | 1015 hPa | 0 mm | - | - | - |
| 1777913950 | 10.56° C | 60% | 1014.9 hPa | 0 mm | - | - | - |
| 1777913283 | 11.11° C | 59% | 1014.9 hPa | 0 mm | - | - | - |
| 1777912616 | 11.11° C | 58% | 1014.9 hPa | 0 mm | - | - | - |
| 1777911949 | 11.67° C | 57% | 1014.9 hPa | 0 mm | - | - | - |
| 1777911282 | 11.67° C | 57% | 1014.6 hPa | 0 mm | - | - | - |
| 1777910615 | 12.22° C | 57% | 1015 hPa | 0 mm | - | - | - |
| 1777909949 | 12.22° C | 57% | 1015.2 hPa | 0 mm | - | - | - |
| 1777909281 | 12.22° C | 57% | 1014.9 hPa | 0 mm | - | - | - |
| 1777908614 | 12.22° C | 58% | 1014.9 hPa | 0 mm | - | - | - |
| 1777907947 | 11.67° C | 58% | 1014.7 hPa | 0 mm | - | - | - |
| 1777907280 | 11.67° C | 58% | 1014.6 hPa | 0 mm | - | - | - |
| 1777905946 | 11.11° C | 58% | 1014.6 hPa | 0 mm | - | - | - |
* Rain since midnight (hover to see other rain measurements)
** Current wind speed in m/s (hover to see current wind gust speed)